Temperature
6 6 6 7 7 7 7 7 7 7 7 7 8 8 8 8 8 8 8 8 8 8 8 8 8 8 7 7 7 6 6 5 5 4 4 3 3 3
6 6 6 6 7 7 7 7 7 7 7 7 7 8 8 8 8 8 8 8 8 8 8 8 7 7 7 6 6 6 5 5 4 4 3 3 2 2
5 6 6 6 6 6 7 7 7 7 7 7 7 7 7 7 7 7 7 7 7 7 7 7 7 7 6 6 6 5 5 4 4 3 3 3 2 1
5 5 6 6 6 6 6 6 7 7 7 7 6 7 7 7 7 7 7 7 7 7 7 7 6 6 6 5 5 5 4 4 3 3 3 2 2 1
5 5 5 5 5 6 6 6 6 7 7 7 6 6 6 6 6 6 6 6 6 6 6 6 6 6 5 5 5 4 4 3 3 3 2 2 1 1
5 5 5 5 5 5 5 6 6 6 6 6 6 6 6 6 6 6 6 6 6 6 6 6 5 5 5 5 4 4 3 3 3 2 2 1 1 1
4 5 5 5 5 5 5 6 6 6 6 6 5 5 5 5 6 6 6 6 5 5 5 5 5 5 5 4 4 3 3 3 2 2 1 1 1 0
4 5 5 5 5 5 5 6 6 6 6 6 5 5 6 6 6 5 5 5 5 5 5 5 5 4 4 4 3 3 3 2 2 1 1 1 0 0
4 4 4 5 5 5 5 5 6 6 6 6 6 6 6 6 6 6 5 5 5 5 5 4 4 4 4 3 3 2 2 1 1 1 1 0 0 -0
4 4 4 4 4 5 5 5 5 5 6 6 6 6 6 6 6 6 5 5 5 4 4 4 4 3 3 2 2 2 1 1 1 0 0 0 -0 -1
4 4 4 4 4 4 4 5 5 5 5 5 5 5 5 5 5 5 5 5 4 4 4 4 3 3 2 2 2 1 1 1 1 0 -0 -0 -1 -1
4 4 4 4 4 4 4 4 4 5 5 5 5 5 5 5 5 5 5 5 4 4 3 3 3 3 2 1 1 1 0 0 0 -0 -0 -1 -1 -1
4 4 4 4 4 4 4 4 5 5 5 4 4 4 4 5 5 5 5 5 5 4 4 3 3 2 2 1 1 0 -0 -0 -0 -0 -1 -1 -1 -1
3 3 4 4 4 4 4 4 4 4 4 4 4 4 4 4 4 4 4 4 4 4 4 3 3 2 2 1 0 -0 -0 -1 -1 -1 -1 -1 -1 -1
3 3 3 3 4 4 4 4 4 4 4 4 4 4 4 4 4 4 4 3 3 3 3 2 2 2 1 1 0 -0 -0 -1 -1 -1 -1 -1 -1 -2
3 3 3 3 3 3 3 3 4 4 4 4 4 3 3 3 3 3 3 3 2 2 2 1 1 1 1 0 0 -0 -1 -1 -1 -1 -1 -1 -2 -2
3 3 2 3 3 3 3 3 3 3 3 3 3 3 3 3 3 3 3 2 2 2 1 1 1 0 0 -0 -0 -1 -1 -1 -1 -2 -2 -2 -2 -2
2 2 2 2 2 2 2 3 3 3 3 3 3 3 3 2 2 2 2 2 2 1 1 0 0 -0 -0 -1 -1 -1 -1 -1 -2 -2 -2 -2 -2 -2
2 2 2 2 2 2 2 2 2 3 3 3 3 2 2 2 2 2 1 1 1 1 0 -0 -0 -0 -0 -1 -2 -2 -2 -2 -2 -2 -2 -2 -2 -2
2 2 2 2 2 2 2 2 2 2 2 2 2 2 2 2 2 1 1 1 1 -0 -0 -1 -1 -0 -1 -1 -2 -2 -2 -2 -2 -2 -2 -2 -2 -2
1 1 2 2 2 2 2 2 2 2 2 2 1 2 2 2 1 1 1 0 0 -0 -1 -1 -1 -1 -1 -1 -2 -2 -3 -3 -2 -2 -2 -2 -3 -3
1 1 1 1 1 1 2 2 2 1 1 1 1 1 1 1 1 1 1 0 -0 -1 -1 -1 -2 -2 -2 -2 -2 -2 -3 -3 -3 -3 -3 -3 -3 -3
1 1 1 1 1 1 1 1 1 1 1 1 1 1 1 1 1 1 0 -0 -1 -1 -1 -2 -2 -2 -2 -2 -2 -2 -2 -3 -3 -3 -3 -3 -3 -3
Wind_Speed
10 10 8 7 7 6 6 6 6 5 5 4 3 5 6 7 11 12 11 14 15 14 13 12 12 11 10 8 7 6 4 3 3 4 6 8 10 11
9 10 9 7 7 7 7 6 6 5 5 3 3 4 5 5 10 11 11 14 15 14 13 12 11 11 10 9 7 6 5 3 4 5 6 8 9 10
10 11 10 8 7 7 6 7 6 5 5 3 2 4 5 5 5 7 9 9 10 14 13 12 11 11 10 9 8 6 5 4 3 4 6 7 8 10
10 10 10 8 8 7 7 7 7 6 5 5 3 3 4 6 6 6 6 7 7 12 13 12 11 11 10 9 8 7 5 3 3 4 5 6 8 9
11 10 10 9 9 7 8 7 6 5 5 6 4 3 3 4 5 4 5 4 6 9 11 11 11 11 10 9 8 6 5 3 3 3 4 5 7 9
10 10 10 10 10 9 8 8 6 6 6 6 5 4 3 3 4 5 4 3 4 5 7 8 9 10 10 9 8 7 5 3 2 2 3 5 6 8
9 9 9 10 11 10 8 8 8 7 6 6 5 4 4 5 5 4 4 4 3 3 4 4 5 4 5 7 7 7 5 3 2 2 3 5 6 7
10 9 9 9 11 11 11 10 10 10 9 7 5 8 7 6 5 6 5 5 3 4 4 3 4 4 3 5 7 7 5 4 2 2 3 4 6 7
9 9 8 8 9 8 8 7 7 10 10 9 9 9 9 9 8 7 6 5 3 4 4 3 3 3 3 5 8 7 5 3 2 2 3 4 5 6
9 10 9 9 9 8 7 5 4 5 6 6 7 7 7 8 8 7 6 5 4 3 3 3 3 2 2 3 6 6 5 3 2 2 3 4 5 6
9 9 9 9 9 9 8 6 4 2 2 5 6 6 8 8 8 7 7 6 3 2 1 3 3 2 2 1 3 5 4 3 1 1 3 4 5 6
6 7 9 9 10 10 8 8 7 5 4 4 5 5 5 7 8 7 8 7 4 3 2 3 3 3 2 0 1 2 2 2 1 2 3 4 5 3
5 5 6 9 9 9 7 6 8 6 5 6 5 4 4 4 3 3 3 5 5 3 5 4 3 3 3 1 0 0 1 1 0 1 3 4 5 4
5 5 6 9 8 8 6 7 8 7 5 5 5 4 4 4 4 4 5 5 5 5 7 6 4 4 4 3 1 0 0 0 0 0 1 4 5 5
5 7 7 8 7 6 7 8 7 6 6 6 5 4 3 5 6 6 7 8 9 8 7 5 5 5 4 4 3 2 0 1 0 1 1 2 2 2
5 7 8 7 6 6 5 4 4 5 6 6 6 5 5 5 6 5 6 6 6 6 6 7 6 6 4 4 4 3 1 1 1 1 1 2 2 1
4 4 4 4 4 4 3 3 4 5 5 6 6 6 6 6 5 4 5 5 5 5 5 5 6 7 6 4 3 3 2 1 0 1 2 2 3 2
4 4 4 5 5 5 4 4 4 5 5 5 6 7 7 7 6 5 5 6 7 6 5 5 5 5 4 4 4 3 2 1 1 1 1 1 3 3
3 4 4 5 5 4 4 4 4 4 5 6 7 7 7 7 7 7 7 7 7 7 5 4 4 4 5 3 3 3 2 1 1 2 2 1 2 3
3 3 4 4 5 5 5 5 5 5 5 6 6 6 6 7 7 7 7 8 8 7 6 3 3 3 4 4 2 1 2 1 1 1 2 2 2 3
3 2 3 3 4 4 5 5 5 6 6 6 6 6 6 7 7 8 8 11 9 7 6 4 3 5 4 4 4 3 3 3 2 1 1 2 2 3
3 3 2 3 3 4 5 5 5 6 6 6 6 6 6 6 8 9 9 8 7 7 6 5 4 4 3 4 5 3 2 3 5 6 5 2 1 1
3 3 2 3 3 4 5 5 6 6 6 6 6 6 6 7 7 8 8 8 8 8 8 6 5 4 4 5 5 4 3 3 3 4 5 7 6 5
Wind_Direction
237 233 233 232 224 221 216 207 208 229 238 224 210 197 186 183 185 185 186 192 193 194 195 194 194 195 193 194 201 212 214 235 269 290 302 306 312 317
236 229 228 231 224 217 214 216 210 214 236 226 225 194 179 182 184 181 185 189 193 193 190 191 191 190 188 187 193 197 203 225 257 283 297 306 312 317
238 229 225 224 223 220 214 214 212 203 223 241 215 179 180 177 180 181 177 180 188 189 190 190 189 188 185 185 187 191 201 219 254 283 299 309 315 320
234 228 225 225 223 220 215 215 214 204 199 208 208 187 190 178 177 176 170 174 180 186 187 188 186 186 186 184 186 189 196 211 251 284 301 311 319 320
232 228 222 220 225 220 217 214 211 201 188 187 201 191 189 170 163 162 156 166 172 179 180 184 184 186 187 185 186 186 189 202 238 280 306 314 318 320
233 227 221 217 220 215 214 211 200 187 178 179 182 181 184 172 166 167 165 175 173 167 172 176 180 185 187 184 183 182 184 197 231 285 308 313 315 320
232 228 226 221 218 217 216 204 191 184 180 182 183 186 190 183 194 180 172 167 163 159 155 170 168 177 185 184 182 178 180 193 219 278 300 308 314 322
227 228 225 221 217 220 218 212 197 188 187 190 197 197 203 199 188 172 163 168 184 170 160 176 161 167 177 178 177 175 180 191 214 267 293 305 315 323
222 222 227 224 212 200 198 194 194 192 194 194 195 202 199 195 180 177 183 176 181 164 149 165 154 164 169 172 170 172 177 188 216 264 297 309 318 324
217 216 215 208 204 189 181 179 187 194 196 195 192 198 198 185 181 180 167 130 99 117 139 154 153 158 143 159 167 170 179 189 218 271 305 319 327 330
218 213 205 198 194 181 171 168 169 171 139 158 164 171 170 168 162 151 153 145 144 158 141 140 142 121 113 138 164 172 182 190 217 277 311 327 336 339
205 198 197 193 183 176 171 168 172 171 153 138 129 132 143 150 160 174 169 160 150 165 174 139 138 124 116 83 131 171 190 205 240 291 320 334 343 356
193 187 183 176 176 174 170 172 174 166 154 142 131 128 126 127 128 131 142 158 157 162 164 144 137 127 127 129 64 145 155 170 250 312 323 336 343 350
188 177 168 162 162 163 164 161 159 156 151 144 141 143 141 133 122 108 99 91 96 131 148 140 135 143 132 126 150 116 36 124 115 332 327 339 344 341
165 158 152 150 149 155 157 162 165 161 155 153 155 155 144 136 123 106 92 88 78 79 97 106 121 129 125 137 145 151 134 321 1 9 345 337 328 337
132 132 130 131 137 144 154 158 163 165 159 157 151 143 132 127 124 123 122 115 97 77 65 79 101 116 115 119 133 141 134 159 342 1 358 335 334 344
130 129 134 141 143 140 141 144 146 147 145 146 143 140 136 130 125 122 123 116 113 118 98 76 76 83 89 109 117 120 114 90 59 13 11 350 336 339
137 147 154 157 162 163 160 153 148 148 146 141 139 142 143 142 135 125 120 122 122 122 118 114 109 94 75 53 55 116 95 79 21 12 9 357 342 342
138 156 162 167 167 169 167 162 153 148 144 141 139 141 142 141 138 135 132 126 123 123 122 124 120 117 112 95 22 29 108 89 37 11 359 349 319 320
140 155 165 168 167 167 164 157 148 142 138 138 139 141 144 141 139 138 138 135 131 125 121 112 106 116 125 133 125 29 30 111 89 27 357 351 332 326
140 146 159 165 163 160 158 155 150 146 143 142 142 142 144 142 141 139 137 136 130 129 131 127 115 108 102 98 94 65 22 32 64 87 29 13 1 8
142 149 152 153 155 156 153 150 144 141 142 140 141 141 142 142 141 140 139 139 134 129 123 117 115 102 89 105 111 101 59 29 36 43 40 48 71 41
148 144 142 147 150 153 154 151 147 145 143 140 139 141 141 138 136 136 135 133 131 128 124 120 107 88 91 106 110 102 80 50 39 42 33 28 43 49
Height
1406 1407 1409 1411 1413 1415 1416 1418 1419 1419 1420 1421 1423 1426 1429 1431 1434 1436 1439 1442 1445 1446 1448 1450 1451 1452 1452 1452 1453 1453 1453 1453 1452 1451 1450 1449 1447 1445
1398 1400 1401 1404 1406 1408 1410 1411 1413 1415 1414 1415 1417 1419 1423 1426 1428 1430 1433 1436 1439 1441 1442 1444 1445 1446 1447 1447 1448 1448 1448 1448 1448 1447 1446 1445 1443 1441
1390 1392 1394 1397 1399 1401 1403 1405 1407 1409 1409 1410 1413 1415 1418 1420 1423 1425 1428 1430 1432 1435 1437 1438 1439 1441 1441 1442 1443 1444 1444 1444 1443 1443 1442 1440 1438 1437
1383 1385 1387 1390 1392 1394 1396 1398 1400 1402 1404 1405 1407 1410 1412 1415 1418 1420 1422 1424 1427 1429 1431 1432 1434 1435 1436 1437 1439 1439 1439 1439 1439 1439 1438 1436 1434 1433
1376 1378 1380 1383 1385 1387 1389 1391 1393 1396 1398 1400 1401 1405 1407 1410 1413 1415 1417 1419 1422 1424 1426 1427 1429 1430 1432 1433 1434 1434 1435 1435 1435 1434 1433 1432 1431 1429
1369 1372 1374 1376 1378 1380 1383 1385 1387 1390 1392 1395 1397 1400 1403 1405 1408 1409 1411 1414 1416 1419 1421 1423 1424 1426 1427 1429 1430 1430 1431 1431 1431 1430 1430 1428 1427 1425
1363 1365 1367 1370 1372 1375 1377 1379 1381 1384 1387 1390 1392 1395 1398 1400 1402 1404 1407 1409 1412 1414 1416 1418 1420 1422 1423 1425 1426 1426 1427 1427 1427 1427 1426 1425 1424 1422
1356 1358 1361 1364 1366 1369 1371 1374 1376 1378 1381 1385 1387 1390 1392 1395 1397 1399 1402 1404 1406 1409 1412 1415 1417 1418 1420 1421 1422 1422 1423 1424 1424 1424 1423 1422 1421 1419
1350 1352 1355 1358 1361 1363 1366 1368 1371 1374 1377 1380 1382 1384 1387 1389 1392 1395 1397 1400 1402 1405 1408 1410 1413 1414 1417 1418 1419 1419 1420 1421 1421 1421 1420 1419 1418 1416
1344 1347 1349 1352 1355 1358 1360 1363 1366 1370 1373 1376 1378 1380 1383 1386 1388 1391 1394 1396 1399 1402 1405 1407 1409 1411 1413 1415 1416 1417 1418 1418 1419 1418 1418 1417 1415 1413
1338 1341 1344 1347 1350 1354 1356 1359 1362 1365 1369 1372 1374 1377 1379 1381 1384 1387 1390 1392 1394 1398 1401 1403 1405 1408 1410 1412 1413 1414 1415 1416 1416 1416 1415 1414 1413 1411
1333 1336 1340 1343 1346 1350 1352 1355 1357 1361 1364 1367 1370 1372 1375 1377 1381 1384 1386 1388 1391 1394 1397 1400 1402 1404 1407 1409 1411 1412 1412 1413 1413 1413 1412 1411 1410 1408
1329 1332 1336 1340 1343 1346 1349 1352 1354 1358 1361 1363 1365 1368 1371 1373 1377 1380 1383 1386 1388 1390 1394 1396 1398 1401 1403 1406 1408 1409 1410 1411 1411 1410 1410 1409 1408 1406
1326 1329 1333 1336 1339 1343 1346 1349 1352 1355 1358 1360 1362 1364 1367 1370 1373 1377 1380 1383 1385 1388 1391 1393 1395 1398 1400 1402 1405 1407 1408 1409 1408 1408 1408 1407 1406 1404
1324 1327 1330 1333 1337 1340 1343 1346 1350 1352 1354 1356 1358 1361 1365 1367 1371 1374 1377 1380 1383 1386 1389 1391 1394 1396 1398 1400 1402 1404 1405 1406 1407 1406 1406 1405 1404 1402
1322 1325 1328 1331 1335 1338 1341 1344 1346 1349 1351 1353 1356 1359 1363 1366 1368 1372 1375 1378 1381 1384 1388 1390 1392 1395 1397 1399 1400 1402 1404 1404 1405 1405 1405 1404 1403 1401
1320 1323 1326 1329 1332 1335 1338 1340 1343 1346 1349 1351 1354 1357 1360 1363 1367 1371 1374 1377 1380 1383 1386 1389 1392 1394 1397 1398 1400 1401 1402 1403 1404 1404 1403 1402 1401 1400
1319 1321 1324 1327 1330 1332 1335 1338 1341 1344 1347 1350 1353 1356 1359 1362 1366 1369 1373 1376 1379 1382 1385 1388 1391 1393 1396 1398 1401 1401 1402 1403 1403 1403 1402 1401 1400 1399
1318 1320 1322 1325 1328 1331 1334 1336 1339 1342 1345 1349 1351 1354 1358 1361 1365 1368 1372 1375 1378 1382 1385 1388 1391 1392 1394 1396 1400 1402 1402 1402 1402 1402 1401 1401 1400 1399
1316 1318 1321 1324 1327 1330 1332 1335 1338 1341 1344 1348 1350 1353 1357 1360 1364 1367 1371 1374 1378 1381 1385 1388 1390 1392 1394 1396 1398 1401 1402 1402 1402 1401 1401 1400 1399 1399
1315 1318 1320 1323 1326 1328 1331 1334 1337 1340 1343 1346 1349 1353 1356 1359 1363 1367 1370 1374 1378 1381 1384 1388 1391 1393 1395 1397 1398 1400 1402 1403 1403 1402 1401 1400 1399 1398
1315 1317 1320 1322 1325 1327 1330 1333 1336 1339 1342 1346 1349 1352 1356 1359 1363 1366 1370 1373 1377 1381 1384 1388 1391 1394 1395 1397 1398 1400 1401 1402 1403 1403 1402 1401 1401 1399
1314 1316 1319 1321 1324 1327 1329 1332 1335 1338 1342 1345 1348 1352 1355 1358 1362 1366 1370 1374 1378 1381 1384 1388 1391 1394 1396 1397 1399 1400 1401 1402 1403 1403 1403 1402 1402 1401